This demonstration page uses our WeatherBlox Daily Observations layout. Learn more.

Left ArrowRight Arrow

39.92423, -83.80882

Hourly Observations for July 17, 2022

Temp ( °F °C ) Dew Point ( °F °C ) Humidity (%) Winds ( mph kmh ) Pressure ( in mb ) Visibility ( mi km ) Precip ( " mm )
12:56 am 00:56 Hazy N/A N/A N/A SSE 5 7 N/A 5 8 0.00 0.00
1:56 am 01:56 Clear 73 23 N/A N/A Calm 29.94 1014 10 16 0.00 0.00
2:56 am 02:56 Mostly Cloudy 73 23 N/A N/A S 5 7 29.93 1013 10 16 0.00 0.00
3:56 am 03:56 Partly Cloudy 72 22 N/A N/A Calm 29.91 1013 10 16 0.00 0.00
4:56 am 04:56 Partly Cloudy 74 23.3 74 23.3 100 100 WSW 9 15 29.91 1013 10 16 0.00 0.00
5:20 am 05:20 Clear with Nearby Thunderstorms 73 23 72 22 94 94 WSW 10 17 29.90 1013 8 13 0.00 0.00
5:35 am 05:35 Mostly Clear with Nearby Thunderstorms 72 22 72 22 100 100 W 14 22 29.89 1012 10 16 0.00 0.00
5:56 am 05:56 Mostly Cloudy with Strong Thunderstorms 70 21 N/A N/A SW 15 24 29.92 1013 4 6 0.00 0.00
6:23 am 06:23 Mostly Cloudy with Nearby Thunderstorms 68 20 N/A N/A Calm 29.91 1013 4 6 0.00 0.00
6:46 am 06:46 Cloudy with Thunderstorms 70 21 N/A N/A WNW 13 20 29.94 1014 2 3 0.00 0.00
6:54 am 06:54 Cloudy with Strong Thunderstorms 70 21 N/A N/A NNW 14 22 29.91 1013 3 5 0.00 0.00
6:56 am 06:56 Cloudy with Strong Thunderstorms 70 21 N/A N/A NNW 12 19 29.92 1013 5 8 0.00 0.00
7:13 am 07:13 Cloudy with Strong Thunderstorms N/A N/A N/A WNW 10 17 N/A 2 2 0.00 0.00
7:18 am 07:18 Cloudy with Thunderstorms N/A N/A N/A NW 5 7 N/A 1 1 0.00 0.00
7:25 am 07:25 Cloudy with Thunderstorms N/A N/A N/A WSW 7 11 N/A 1 1 0.00 0.00
7:29 am 07:29 Cloudy with Thunderstorms N/A N/A N/A SW 5 7 N/A 1 2 0.00 0.00
7:39 am 07:39 Cloudy with Thunderstorms N/A N/A N/A NE 3 6 N/A 1 2 0.00 0.00
7:46 am 07:46 Cloudy with Nearby Thunderstorms N/A N/A N/A N 6 9 N/A 3 5 0.00 0.00
7:56 am 07:56 Cloudy with Nearby Thunderstorms N/A N/A N/A NE 5 7 N/A 3 5 0.00 0.00
8:08 am 08:08 Cloudy with Haze N/A N/A N/A ENE 5 7 N/A 4 6 0.00 0.00
8:47 am 08:47 Cloudy with Nearby Thunderstorms N/A N/A N/A S 6 9 N/A 3 4 0.00 0.00
8:51 am 08:51 Cloudy with Nearby Thunderstorms N/A N/A N/A VRB 3 6 N/A 2 2 0.00 0.00
8:56 am 08:56 Cloudy with Nearby Thunderstorms N/A N/A N/A Calm N/A 2 2 0.00 0.00
9:00 am 09:00 Cloudy with Nearby Thunderstorms N/A N/A N/A NNE 3 6 N/A 2 3 0.00 0.00
9:07 am 09:07 Cloudy with Haze N/A N/A N/A undefined N/A N/A 5 8 0.00 0.00
9:33 am 09:33 Cloudy with Haze N/A N/A N/A NE 8 13 N/A 6 10 0.00 0.00
9:51 am 09:51 Cloudy with Thunderstorms N/A N/A N/A Calm N/A 3 4 0.00 0.00
9:56 am 09:56 Cloudy with Strong Thunderstorms N/A N/A N/A NE 3 6 N/A 1 2 0.00 0.00
10:13 am 10:13 Cloudy with Thunderstorms N/A N/A N/A ESE 7 11 N/A 3 4 0.00 0.00
10:25 am 10:25 Cloudy with Nearby Thunderstorms N/A N/A N/A ESE 8 13 N/A 1 2 0.00 0.00
10:33 am 10:33 Cloudy with Mist and Fog N/A N/A N/A SE 10 17 N/A 1 2 0.00 0.00
10:38 am 10:38 Cloudy with Mist and Fog N/A N/A N/A SE 10 17 N/A 3 5 0.00 0.00
10:56 am 10:56 Cloudy N/A N/A N/A SE 7 11 N/A 8 13 0.00 0.00
11:10 am 11:10 Cloudy with Haze N/A N/A N/A SSE 9 15 N/A 6 10 0.00 0.00
11:52 am 11:52 Cloudy with Light Rain N/A N/A N/A S 6 9 N/A 8 13 0.00 0.00
11:56 am 11:56 Cloudy 70 21 N/A N/A S 8 13 29.91 1013 10 16 0.00 0.00
12:56 pm 12:56 Cloudy with Rain 72 22 N/A N/A S 7 11 29.90 1013 6 10 0.00 0.00
1:11 pm 13:11 Cloudy with Haze 72 22 N/A N/A S 12 19 29.90 1013 6 10 0.00 0.00
1:56 pm 13:56 Cloudy 72 22 N/A N/A S 7 11 29.92 1013 10 16 0.00 0.00
2:08 pm 14:08 Cloudy 73 23 N/A N/A S 9 15 29.90 1013 10 16 0.00 0.00
2:49 pm 14:49 Cloudy with Light Rain 73 23 N/A N/A S 6 9 29.89 1012 6 10 0.00 0.00
2:56 pm 14:56 Cloudy with Rain 73 23 N/A N/A S 6 9 29.91 1013 7 11 0.00 0.00
3:05 pm 15:05 Cloudy with Heavy Rain 72 22 N/A N/A SSW 7 11 29.89 1012 2 3 0.00 0.00
3:08 pm 15:08 Cloudy with Light Rain 72 22 N/A N/A SSW 7 11 29.89 1012 1 2 0.00 0.00
3:17 pm 15:17 Cloudy with Heavy Rain 72 22 N/A N/A SSW 8 13 29.88 1012 1 1 0.00 0.00
3:19 pm 15:19 Cloudy with Heavy Rain 72 22 N/A N/A VRB 3 6 29.88 1012 1 2 0.00 0.00
3:23 pm 15:23 Cloudy with Rain N/A N/A N/A S 10 17 N/A 2 3 0.00 0.00
3:39 pm 15:39 Cloudy with Light Rain N/A N/A N/A SW 13 20 N/A 3 5 0.00 0.00
3:56 pm 15:56 Cloudy with Rain N/A N/A N/A SW 9 15 N/A 3 5 0.00 0.00
4:03 pm 16:03 Cloudy with Heavy Rain N/A N/A N/A SW 10 17 N/A 2 2 0.00 0.00
4:16 pm 16:16 Cloudy with Rain N/A N/A N/A SW 10 17 N/A 3 5 0.00 0.00
4:39 pm 16:39 Cloudy N/A N/A N/A SSW 10 17 N/A 9 14 0.00 0.00
4:56 pm 16:56 Cloudy with Light Rain 72 22 N/A N/A SW 15 24 29.89 1012 7 11 0.00 0.00
5:37 pm 17:37 Partly Cloudy 72 22 N/A N/A SW 9 15 29.85 1011 10 16 0.00 0.00
5:56 pm 17:56 Partly Cloudy 72 22 N/A N/A SW 13 20 29.88 1012 10 16 0.00 0.00
6:16 pm 18:16 Mostly Cloudy 72 22 N/A N/A SW 10 17 29.85 1011 10 16 0.00 0.00
6:40 pm 18:40 Cloudy 72 22 N/A N/A SSW 14 22 29.86 1011 10 16 0.00 0.00
6:56 pm 18:56 Cloudy 72 22 N/A N/A SSW 8 13 29.88 1012 10 16 0.00 0.00
7:28 pm 19:28 Cloudy with Light Rain N/A N/A N/A SSW 9 15 N/A 8 13 0.00 0.00
7:56 pm 19:56 Cloudy N/A N/A N/A SSW 7 11 N/A 8 13 0.00 0.00
8:51 pm 20:51 Cloudy N/A N/A N/A SSW 6 9 N/A 10 16 0.00 0.00
8:56 pm 20:56 Cloudy N/A N/A N/A SSW 9 15 N/A 10 16 0.00 0.00
9:07 pm 21:07 Cloudy N/A N/A N/A SSW 8 13 N/A 10 16 0.00 0.00
9:25 pm 21:25 Cloudy 72 22 N/A N/A S 6 9 29.83 1010 10 16 0.00 0.00
9:56 pm 21:56 Cloudy 72 22 N/A N/A S 7 11 29.82 1010 9 14 0.00 0.00
10:26 pm 22:26 Cloudy with Rain N/A N/A N/A VRB 5 7 N/A 4 6 0.00 0.00
10:40 pm 22:40 Cloudy with Rain N/A N/A N/A WSW 14 22 N/A 5 8 0.00 0.00
10:56 pm 22:56 Cloudy N/A N/A N/A W 12 19 N/A 10 16 0.00 0.00
11:46 pm 23:46 Cloudy N/A N/A N/A WSW 7 11 N/A 10 16 0.00 0.00
11:56 pm 23:56 Cloudy N/A N/A N/A W 8 13 N/A 10 16 0.00 0.00

Powered by AerisWeather